Regional Weather Roundup
Issued by NWS State College, PA

Home | Current Version | Previous Version | Text Only | Print | Product List | Glossary Off
Versions: 1 2 3 4 5 6 7 8 9 10 11 12 13 14 15 16 17 18 19 20 21 22 23 24 25 26 27 28 29 30 31 32 33 34 35 36 37 38 39 40 41 42 43 44 45 46 47 48 49 50

601
ASUS41 KCTP 131603
RWRCTP

REGIONAL WEATHER ROUNDUP
NATIONAL WEATHER SERVICE STATE COLLEGE PA
1100 AM EST SAT FEB 13 2016

Note: "fair" indicates few or no clouds below 12,000 feet with no
significant weather and/or obstructions to visibility.

* = STATION THAT DOES NOT REPORT PRECIPITATION /E.G. RAIN...SNOW...ETC/
    THUNDER OR FOG.

PAZ002>004-007>009-013>016-020>023-029>032-131700-
WESTERN PENNSYLVANIA

CITY           SKY/WX    TMP DP  RH WIND       PRES   REMARKS
ERIE           CLOUDY     7  -3  64 N13G22    30.36R WCI  -9
MEADVILLE      SNOW       5  -1  76 N7        30.26R VSB 1/2 WCI  -7
FRANKLIN*      CLOUDY     3  -9  55 NW8       30.26R WCI -10
NEW CASTLE     FLURRIES  10  -3  55 NW14G21   30.34R WCI  -6
BEAVER COUNTY  CLOUDY    10  -6  48 NW12G22   30.32R WCI  -4
BUTLER*        PTSUNNY    9  -6  52 W12G22    30.32R WCI  -6
PITTSBURGH INT CLOUDY     9  -3  58 NW24G30   30.31R WCI -12
PITTSBURGH     CLOUDY    11  -6  46 NW15G26   30.30R WCI  -5
INDIANA*       PTSUNNY    9   1  72 N12G18    30.27R HAZE    WCI  -6
LATROBE        FLURRIES   9  -2  61 W20G31    30.30R WCI -11
WASHINGTON CO* PTSUNNY   10  -6  48 NW14G23   30.34R WCI  -5
$$

PAZ004>006-010>012-017>019-024>028-033>037-041-042-045-046-049>053-131700-
CENTRAL PENNSYLVANIA

CITY           SKY/WX    TMP DP  RH WIND       PRES   REMARKS
BRADFORD       LGT SNOW  -1  -9  68 NW16G28   30.10S VSB 3/4 WCI -21
DUBOIS         CLOUDY     4  -9  55 NW18G29   30.15R HAZE    WCI -16
CLEARFIELD     CLOUDY     6  -6  57 N17G25    30.18R WCI -13
JOHNSTOWN      LGT SNOW   4  -5  66 NW18      30.10R VSB 1   WCI -16
ALTOONA        FLURRIES   8  -3  61 NW16G30   30.17R WCI -10
STATE COLLEGE  CLOUDY     9  -6  52 MISG      30.17R
WILLIAMSPORT   PTSUNNY   12 -12  33 NW20G37   30.18R WCI  -6
SELINSGROVE    CLOUDY    14  -5  42 NW17G26   30.20R WCI  -3
FT INDIANTOWN  FLURRIES  15  -5  41 NW20G30   30.17R WCI  -2
CAPITAL CITY   CLOUDY    18  -5  36 NW20G31   30.21R WCI   2
HARRISBURG     PTSUNNY   16   1  51 NW24G37   30.19R BLWGSNOWWCI  -2
YORK           SUNNY     16  -3  43 NW18G29   30.20R WCI   0
$$

PAZ038>040-043-044-047-048-054-055-060>062-067>071-131700-
EASTERN PENNSYLVANIA

CITY           SKY/WX    TMP DP  RH WIND       PRES   REMARKS
SCRANTON       CLOUDY    10  -7  46 NW20G33   30.09R WCI  -9
MOUNT POCONO   CLOUDY     4 -10  52 NW22G37   29.94R BLWGSNOWWCI -18
ALLENTOWN      CLOUDY    17  -1  45 NW23G32   30.10R WCI  -1
QUAKERTOWN*    SUNNY     18  -2  41 NW14G24   30.10R WCI   4
READING        LGT SNOW  17   6  62 W24G30    30.13R WCI  -1
LANCASTER      PTSUNNY   17   2  51 NW24G32   30.16R WCI  -1
COATESVILLE    MOSUNNY   16   3  57 W21G28    30.13R WCI  -2
POTTSTOWN      CLOUDY    19   5  54 W14G22    30.13R WCI   6
BLUE BELL        N/A     21   1  42 W7G18     30.11R WCI  13
DOYLESTOWN     PTSUNNY   19  -4  36 NW18G26   30.08R WCI   4
WILLOW GROVE   NOT AVBL
NORTH PHILA    CLOUDY    22  -2  35 NW18G31   30.13R WCI   7
PHILADELPHIA   PTSUNNY   21   1  41 W22G31    30.15R WCI   5
$$




USA.gov is the U.S. government's official web portal to all federal, state and local government web resources and services.